Voltar ao catálogo

FLOCK 4Q 26

AtivoCiênciaPO
NORAD 58284·PAYLOAD·🇺🇸 United States

Lançado Nov 11, 2023 de Vandenberg Space Force Base

Loading…

Próximas Passagens (próximas 24 horas)

TLE

ObsoletoSource: Space-Track

Época: Sep 2, 2026, 00:00 UTC

1 58284U 23174AE  26245.00021628  .17429963  25254-5  38180-3 0  9999
2 58284  97.3586 342.2178 0007949 277.5642  82.4757 16.46255717157916

Acompanhe FLOCK 4Q 26 em tempo real com AllMySat

Download on the App Store